Regional Weather Roundup
Issued by NWS

Home | Current Version | Previous Version | Graphics & Text | Print | Product List | Glossary On
Versions: 1 2 3 4 5 6 7 8 9 10 11 12 13 14 15 16 17 18 19 20 21 22 23 24 25 26 27 28 29 30 31 32 33 34 35 36 37 38 39 40 41 42 43 44 45 46 47 48 49 50
592
ASUS44 KLIX 201005
RWRLA
LOUISIANA WEATHER ROUNDUP
NATIONAL WEATHER SERVICE NEW ORLEANS LA
400 AM CST SAT DEC 20 2014

NOTE: "FAIR" INDICATES FEW OR NO CLOUDS BELOW 12,000 FEET WITH NO
      SIGNIFICANT WEATHER AND/OR OBSTRUCTIONS TO VISIBILITY.
      SKY/WX - SKY CONDITION AND SIGNIFICANT WEATHER.
      TMP - AIR TEMPERATURE.    DP   - DEWPOINT TEMPERATURE.
      RH  - RELATIVE HUMIDITY.  PRES - PRESSURE.
      HX  - HEAT INDEX.         WCI  - WIND CHILL INDEX.

*  THESE STATIONS ARE NOT NWS OR FAA STATIONS AND ARE NOT UNDER
   NWS QUALITY CONTROL.

LAZ040-048-061>063-065-066-069-201100-
SOUTHEAST LOUISIANA

CITY           SKY/WX    TMP DP  RH WIND       PRES   REMARKS
N.O. AUDUBON     N/A     52  52  99 MISG        N/A
N.O. INTL ARPT CLOUDY    51  49  92 N14       30.07R FOG
N.O. LAKEFRONT CLOUDY    53  49  86 N17       30.08R
N.O. DOWNTOWN* CLOUDY    52  46  82 N7        30.07R
SLIDELL        CLOUDY    48  46  93 N16       30.08R
BATON ROUGE    CLOUDY    48  45  89 VRB5      30.10F
BOOTHVILLE     LGT RAIN  54  54 100 N12G21    30.03R FOG
BELLE CHASSE   CLOUDY    52  51  97 NE7       30.05R
BOGALUSA*        N/A     48  45  87 NE9G16    30.12F
GALLIANO*      LGT RAIN  53  51  95 MISG      30.04R
NEW ROADS*     CLOUDY    47  46  93 N10       30.12F
GONZALES*      CLOUDY    48  48 100 N6        30.09S
HAMMOND*       NOT AVBL
HOUMA*         CLOUDY    51  50  98 N9        30.05R
PORT FOURCHON* CLOUDY    55  54  94 NE18G24   30.05R

$$

LAZ041-044-053-054-201100-
SOUTHWEST LOUISIANA

CITY           SKY/WX    TMP DP  RH WIND       PRES   REMARKS
LAKE CHARLES   CLOUDY    49  47  93 MISG      30.11S
LAFAYETTE      CLOUDY    48  47  96 N12       30.11R
PATTERSON      CLOUDY    52  48  87 NE16      30.07R
SALT POINT       N/A     54  50  86 VRB6      30.05R
NEW IBERIA     CLOUDY    49  47  93 N14       30.10R FOG
CHENAULT AIRPK NOT AVBL

$$

LAZ027-028-201100-
CENTRAL LOUISIANA

CITY           SKY/WX    TMP DP  RH WIND       PRES   REMARKS
FORT POLK      CLOUDY    47  46  97 NE8       30.13S
ALEXANDRIA INT CLOUDY    47  45  93 NE8       30.14S
ALEXANDRIA     CLOUDY    46  45  96 VRB3      30.15S

$$

LAZ001-002-201100-
NORTHWEST LOUISIANA

CITY           SKY/WX    TMP DP  RH WIND       PRES   REMARKS
SHREVEPORT     CLOUDY    45  43  93 NE7       30.19S
BARKSDALE AFB  NOT AVBL
DTN SHREVEPORT CLOUDY    45  41  86 NE6       30.21R

$$

LAZ014-016-201100-
NORTHEAST LOUISIANA

CITY           SKY/WX    TMP DP  RH WIND       PRES   REMARKS
MONROE         PTCLDY    43  41  93 NE6       30.19F
TALLULAH       CLOUDY    45  43  93 N9        30.18S

$$




USA.gov is the U.S. government's official web portal to all federal, state and local government web resources and services.